This is the latest recevied weather packets stored in our database for station/object K0APR. If no packets are shown the sender has not sent any weather packets the latest 10 day(s).
| Time | Temp. | Humidity | Pressure | Rain* | Wind** | Luminosity | Snow |
|---|---|---|---|---|---|---|---|
| 1777940548 | 11.67° C | 39% | 1006.7 hPa | 0 mm | - | 45 W/m² | - |
| 1777940245 | 11.67° C | 39% | 1006.4 hPa | 0 mm | - | 48 W/m² | - |
| 1777939943 | 11.11° C | 38% | 1006.7 hPa | 0 mm | - | 75 W/m² | - |
| 1777939640 | 11.67° C | 39% | 1006.4 hPa | 0 mm | - | 90 W/m² | - |
| 1777939338 | 11.67° C | 38% | 1006.4 hPa | 0 mm | - | 98 W/m² | - |
| 1777939034 | 11.67° C | 39% | 1006.7 hPa | 0 mm | - | 108 W/m² | - |
| 1777938730 | 11.67° C | 38% | 1007 hPa | 0 mm | - | 103 W/m² | - |
| 1777938428 | 11.11° C | 38% | 1006.7 hPa | 0 mm | - | 107 W/m² | - |
| 1777938124 | 11.67° C | 38% | 1006.4 hPa | 0 mm | - | 69 W/m² | - |
| 1777937820 | 11.67° C | 38% | 1006.4 hPa | 0 mm | - | 174 W/m² | - |
| 1777937516 | 11.67° C | 38% | 1006.7 hPa | 0 mm | - | 194 W/m² | - |
| 1777937214 | 11.67° C | 37% | 1006.7 hPa | 0 mm | - | 215 W/m² | - |
| 1777936911 | 11.67° C | 38% | 1006.4 hPa | 0 mm | - | 207 W/m² | - |
| 1777936608 | 12.22° C | 37% | 1006 hPa | 0 mm | - | 216 W/m² | - |
| 1777936304 | 11.67° C | 38% | 1006.4 hPa | 0 mm | - | 248 W/m² | - |
| 1777936000 | 11.67° C | 38% | 1006.4 hPa | 0 mm | - | 117 W/m² | - |
| 1777935699 | 11.67° C | 38% | 1006.4 hPa | 0 mm | - | 123 W/m² | - |
| 1777935397 | 11.67° C | 38% | 1006.4 hPa | 0 mm | - | 153 W/m² | - |
| 1777935093 | 11.67° C | 38% | 1006.4 hPa | 0 mm | - | 152 W/m² | - |
| 1777934790 | 11.67° C | 38% | 1006.4 hPa | 0 mm | - | 157 W/m² | - |
| 1777934486 | 12.22° C | 38% | 1006.4 hPa | 0 mm | - | 219 W/m² | - |
| 1777934184 | 11.67° C | 38% | 1006 hPa | 0 mm | - | 237 W/m² | - |
| 1777933880 | 11.67° C | 39% | 1006 hPa | 0 mm | - | 230 W/m² | - |
| 1777933577 | 11.67° C | 42% | 1006 hPa | 0 mm | - | 125 W/m² | - |
| 1777933274 | 12.22° C | 42% | 1006 hPa | 0 mm | - | 214 W/m² | - |
* Rain latest hour (hover to see other rain measurements)
** Current wind speed in m/s (hover to see current wind gust speed)